CAS-2T & KS-1Q

Last updated on Mon Sep 15 2025 00:03:09 GMT+0000 (Coordinated Universal Time)

1 41847U 16066G 25257.23188440 .00000891 00000+0 13667-3 0 9997 2 41847 98.4129 330.8348 0344194 245.9538 110.5282 14.43711424464968
UTC large
Height (km)
Speed (km/s)
/
Latitude / Longitude
Inclination (degrees)
Orbital Period (minutes)
Azimuth
Elevation
Range (km)
Doppler Factor

Next 0 passes for location: London (51.5072 / 0.1276)

Sorry there are no passes over London.